Other Public Products
Issued by NWS Grand Forks, ND

Home | Current Version | Previous Version | Graphics & Text | Print | Product List | Glossary On
Versions: 1 2 3 4 5 6 7 8 9 10 11 12 13 14 15 16 17 18 19 20 21 22 23 24 25 26 27 28 29 30 31 32 33 34 35 36 37 38 39 40 41 42 43 44 45 46 47 48 49 50
766
FPUS83 KFGF 271110
OPUFGF
PRAIRIE TO PINES WEATHER ROUNDUP
NATIONAL WEATHER SERVICE EASTERN NORTH DAKOTA/GRAND FORKS ND
600 AM CDT WED JUL 27 2016

 **SATELLITE DATA USED TO AUGMENT SKY COVER AT AUTOMATED STATIONS**
 *****  WEATHER ACROSS EASTERN NORTH DAKOTA  *****

CITY           SKY/WX    TMP DP  RH WIND       PRES   REMARKS
GRAND FORKS    CLOUDY    63  59  87 N8        30.04S
GRAND FORKS AF CLOUDY    61  58  90 N6        30.05S
GRAND CITY NWS   N/A     61 N/A N/A N2          N/A
BUXTON           N/A     65  64  99 N3          N/A
DEVILS LAKE    CLOUDY    60  56  86 NE6       30.09F
FARGO          CLOUDY    65  62  90 N9        29.99S
WAHPETON ARPT  CLOUDY    64  63  94 N12       29.96R
$$

 *****  WEATHER ACROSS CENTRAL AND WESTERN NORTH DAKOTA  *****

CITY           SKY/WX    TMP DP  RH WIND       PRES   REMARKS
JAMESTOWN      PTCLDY    61  60  97 NW5       30.05R
BISMARCK       PTCLDY    60  59  96 CALM      30.09R
MINOT          CLEAR     60  56  86 CALM      30.11R
MINOT AFB      CLEAR     60  56  87 NE1       30.10R
GARRISON         N/A     59  59 100 N3        30.10R
WILLISTON      CLOUDY    60  54  80 W3        30.14R
DICKINSON      CLOUDY    55  54  96 N3        30.09R
HETTINGER      CLOUDY    53  51  93 CALM      30.11S
$$

 *****  OTHER OBSERVATIONS NORTHEAST NORTH DAKOTA  *****

CITY           SKY/WX    TMP DP  RH WIND       PRES   REMARKS
WALHALLA       NOT AVBL
LANGDON        PTSUNNY   57  55  94 NE5       30.12R
CAVALIER       CLOUDY    59  55  88 NW10      30.09R
GRAFTON        FAIR      59  59 100 N10       30.08R
CANDO          NOT AVBL
FORT TOTTEN      N/A     61  57  87 NE6       29.95S
ROLLA          CLOUDY    59  57  94 N3        30.14S
RUGBY          NOT AVBL
 ***** THE ABOVE OBSERVATIONS ARE NON NWS ARE NOT QUALITY
        CONTROLLED AND MAY MIS-REPORT RAIN FOR SNOW...
$$

 *****  OTHER OBSERVATIONS SOUTHEAST NORTH DAKOTA *****

CITY           SKY/WX    TMP DP  RH WIND       PRES   REMARKS
COOPERSTOWN    NOT AVBL
VALLEY CITY    PTSUNNY   64  64 100 NE6       30.05S
OAKES            N/A    N/A N/A N/A MISG        N/A
GWINNER        PTSUNNY   64  64 100 W3        30.01R
SHEYENNE NWR     N/A     66  65  96 N6        29.95S
BUFFALO          N/A     63  60  90 N3          N/A
WYNDMERE       NOT AVBL
 ***** THE ABOVE OBSERVATIONS ARE NON NWS ARE NOT QUALITY
       CONTROLLED AND MAY MIS-REPORT RAIN FOR SNOW...
$$

  *****  WEATHER ACROSS NORTHERN MINNESOTA  *****

CITY           SKY/WX    TMP DP  RH WIND       PRES   REMARKS
FLAG ISLAND    CLOUDY    64  55  72 NE7       30.05R
WARROAD        CLOUDY    57  54  88 NW3       30.05S
ROSEAU         CLOUDY    57  52  82 CALM      30.05S
HALLOCK        CLOUDY    59  55  88 N6        30.06S
THF RVR FALLS  CLOUDY    62  56  80 N9        30.04S
HALSTAD          N/A     63  61  92 N6          N/A
FOSSTON        CLOUDY    61  57  88 NE5       30.02S
BAUDETTE       PTCLDY    62  55  77 NE5       30.03R
WASKISH        CLOUDY    63  57  82 NE6       30.01F
CROOKSTON      CLOUDY    63  59  88 NE3       30.03S
$$
  *****  WEATHER ACROSS CENTRAL AND WEST MINNESOTA  *****

CITY           SKY/WX    TMP DP  RH WIND       PRES   REMARKS
BEMIDJI        CLOUDY    63  59  88 N6        30.00S
PARK RAPIDS    RAIN      67  63  87 N7        29.99R
WADENA         CLOUDY    64  63  94 N6        29.97F
DETROIT LAKES  CLOUDY    66  63  88 SE3       30.01R
MOORHEAD       DRIZZLE   66  64  94 N5        29.99F
FERGUS FALLS   MOCLDY    66  66 100 N8        29.97F
ELBOW LAKE     LGT RAIN  65  64  99 N10       29.95F
MORRIS MN      LGT RAIN  64  63  94 SE7       29.93F
STAPLES        CLOUDY    64  64 100 NW12      29.98R
WHEATON        CLOUDY    66  64  94 CALM      29.98R
$$
  *****  WEATHER ELSEWHERE ACROSS MINNESOTA  *****

CITY           SKY/WX    TMP DP  RH WIND       PRES   REMARKS
DULUTH         PTCLDY    66  64  93 SE6       29.98S
INTRNTL FALLS  CLOUDY    65  57  75 NE3       30.02R
ELY            CLOUDY    64  57  77 CALM      30.01S
CLOQUET        CLOUDY    64  61  88 CALM      29.99R
BRAINERD       LGT RAIN  64  63  96 CALM      29.96S
HIBBING        CLOUDY    63  58  83 CALM      29.99R
ALEXANDRIA     RAIN      68  66  93 VRB3      30.00R FOG
SAINT CLOUD    MOCLDY    67  67 100 CALM      29.94S
MINNEAPOLIS    CLOUDY    77  68  73 SW6       29.95F
$$

  *****  WEATHER ACROSS SOUTH DAKOTA  *****

CITY           SKY/WX    TMP DP  RH WIND       PRES   REMARKS
SIOUX FALLS    MOCLDY    70  61  73 W3        29.95R
BROOKINGS      CLOUDY    67  65  93 CALM        N/A
WATERTOWN      CLOUDY    66  63  90 NE5       29.98R
HURON          CLOUDY    66  64  93 NW8       29.97R
SISSETON         N/A     66  65  96 N8        29.96R
ABERDEEN       CLOUDY    66  64  93 N8        30.00R
MITCHELL       CLOUDY    68  61  78 NW10      29.98R
PIERRE         CLEAR     62  60  93 N5        30.00R
MOBRIDGE       CLOUDY    68  63  84 NE6       30.03R
RAPID CITY     PTCLDY    62  60  93 N5        30.12R
$$

  *****  SOME WEATHER IN NEARBY STATES *****

CITY           SKY/WX    TMP DP  RH WIND       PRES   REMARKS
GLASGOW MT     LGT RAIN  62  60  93 VRB5      30.10R
GREAT FALLS MT CLEAR     55  52  89 E6        30.15R
CHEYENNE WY    CLOUDY    57  45  64 W6        30.22S
SCOTTSBLUFF NE CLOUDY    64  58  80 E9        30.14R
OMAHA NE       CLOUDY    73  66  78 SE16      29.90F
DES MOINES IA  PTCLDY    71  66  84 CALM      29.99F
DAVENPORT IA   PTCLDY    64  62  93 NE5       30.03R
CHICAGO IL     PTCLDY    69  63  81 CALM      30.02R
EAU CLAIRE WI  CLOUDY    70  69  97 CALM      29.97S
LA CROSSE WI   CLEAR     71  68  90 SE7       29.99F
$$

  *****  SOME NATIONAL WEATHER *****

CITY           SKY/WX    TMP DP  RH WIND       PRES   REMARKS
LA GUARDIA NY  CLOUDY    77  61  57 NE6       29.95R
RALEIGH NC     MOCLDY    76  75  97 CALM      29.98R
ATLANTA GA     CLOUDY    76  73  91 SW9       30.06R
NEW ORLEANS LA CLOUDY    78  73  84 W5        30.00R
OKLAHOMA CITY  PTCLDY    73  70  90 S6        29.98R
ALBUQUERQUE NM CLOUDY    69  60  73 S7        30.20S
SALT LAKE CITY PTCLDY    72  39  30 CALM      30.07R
LOS ANGELES CA PTCLDY    69  65  86 W6        29.87S
BOISE ID       CLEAR     68  50  52 S3        30.00R
SEATTLE WA     CLEAR     58  57  97 CALM      30.12R
$$

*** WEATHER ACROSS MANITOBA...SASKATCHEWAN AND ONTARIO ***
                ***ONTARIO***

CITY           SKY/WX    TMP DP  RH WIND       PRES   REMARKS
GERALDTON      PTCLDY    55  50  82 NW6       30.04R
THUNDER BAY    PTCLDY    55  54  94 N5        30.01S
SIOUX LOOKOUT  PTCLDY    52  52 100 CALM      30.09R
TORONTO        PTCLDY    70  59  68 VRB2      29.96R
BIG TROUT LK   NOT AVBL
PICKLE LAKE    MOCLDY    55  48  76 NE7       30.09
DRYDEN         CLEAR     57  54  88 NE8       30.08R
KENORA         MOCLDY    59  54  82 NE9       30.09R
$$
                *** MANITOBA***

CITY           SKY/WX    TMP DP  RH WIND       PRES   REMARKS
BRANDON        PTCLDY    54  52  94 NE7       30.14S
DAUPHIN        MOCLDY    48  48 100 W7        30.17R
ISLAND LAKE    CLOUDY    57  54  88 NE2       30.16R
PILOT MOUND      N/A     55  52  88 NE7         N/A
THE PAS        PTCLDY    55  54  94 SE6       30.17S
THOMPSON       FOG       37  37 100 CALM      30.18S VSB 1
WINNIPEG       PTCLDY    50  50 100 N5        30.11R
LYNN LAKE      CLEAR     50  48  93 MISG      30.12F
CHURCHILL      PTCLDY    48  48 100 NW6       30.13S
GILLAM         CLOUDY    55  50  82 N9        30.17R
$$
                ***SASKATCHEWAN***

CITY           SKY/WX    TMP DP  RH WIND       PRES   REMARKS
ESTEVAN        MOCLDY    57  55  94 E6        30.14R
KINDERSLEY     PTCLDY    55  52  88 SE7       30.13S
LLOYDMINSTER   CLEAR     57  52  82 SW8       30.11S
PRINCE ALBERT  FOG       50  50 100 CALM      30.14F VSB 1/8
REGINA         NOT AVBL
YORKTON        CLEAR     50  48  93 CALM      30.18R   C1F1C2F2C3F3C4F4C5F5C6F6C7F7C8F8C9F9CaFaCbFbCcFcCdFdCe!



USA.gov is the U.S. government's official web portal to all federal, state and local government web resources and services.